Regional Weather Roundup
Issued by NWS Kansas City/Pleasant Hill, MO

Home | Current Version | Previous Version | Text Only | Print | Product List | Glossary On
Versions: 1 2 3 4 5 6 7 8 9 10 11 12 13 14 15 16 17 18 19 20 21 22 23 24 25 26 27 28 29 30 31 32 33 34 35 36 37 38 39 40 41 42 43 44 45 46 47 48 49 50
000
ASUS43 KEAX 031411
RWREAX

WEATHER ROUNDUP FOR EASTERN KANSAS AND NORTHWEST MISSOURI
NATIONAL WEATHER SERVICE KANSAS CITY/PLEASANT HILL MO
900 AM CDT SUN MAY 03 2015

KSZ040-057-103>105-MOZ028-029-037-043-031500-
...KANSAS CITY METROPOLITAN AREA...

CITY           SKY/WX    TMP DP  RH WIND       PRES   REMARKS
K.C. INTL      PTSUNNY   66  55  67 S16       29.86S
K.C. DOWNTOWN  CLOUDY    67  53  61 S15G25    29.87R
LEES SUMMIT    CLOUDY    64  52  64 S13G21    29.90S
OLATHE - IXD   PTSUNNY   66  55  67 S16       29.90S
OLATHE - OJC   CLOUDY    64  54  69 S10       29.89S
LAWRENCE       PTSUNNY   65  55  70 S13       29.86F

$$

MOZ001>008-011>017-020>025-030>033-038>040-044>046-053-054-031500-
...NORTHERN AND CENTRAL MISSOURI...

CITY           SKY/WX    TMP DP  RH WIND       PRES   REMARKS
ST. JOSEPH     MOSUNNY   69  57  65 S17       29.84S
MOSBY          PTSUNNY   68  54  60 S8G18     29.88S
WARRENSBURG    CLOUDY    64  52  63 S15       29.92R
WHITEMAN AFB   PTSUNNY   65  53  65 SW15      29.92R
CLINTON        PTSUNNY   66  54  63 S15G21    29.95F
SEDALIA        PTSUNNY   70  52  52 SW16G28   29.96S
WARSAW         NOT AVBL
MARSHALL       PTSUNNY   72  55  56 S18       29.91F
CHILLICOTHE      N/A     68  55  63 S12G18    29.90R
MOBERLY        MOSUNNY   68  48  49 S13G23    29.95F
KIRKSVILLE     PTSUNNY   66  54  65 S15G23    29.90F

$$

MOZ041-047>049-056>058-063>065-088>090-097-031500-
...EASTERN AND SOUTHERN MISSOURI...

CITY           SKY/WX    TMP DP  RH WIND       PRES   REMARKS
ST. LOUIS INTL NOT AVBL
SPIRIT OF STL  MOSUNNY   68  48  48 SW9       30.02R
COLUMBIA       PTSUNNY   65  51  60 S10       29.99R
JEFFERSON CITY PTSUNNY   67  50  54 SE9       29.99F
MEXICO         PTSUNNY   66  54  63 S14       29.98S
HANNIBAL       CLOUDY    68  48  49 S12       29.97S
ROLLA          PTSUNNY   65  50  58 S9        30.01S
LEBANON        MOSUNNY   66  52  59 S7        30.03S
OSAGE BEACH    PTSUNNY   64  50  59 SE6       30.00F
SPRINGFIELD    PTSUNNY   65  51  60 S15       30.01S
BRANSON        PTSUNNY   66  50  55 SE6       30.05R
NEVADA         PTSUNNY   68  54  60 S15       29.96F
JOPLIN         PTSUNNY   68  53  58 S16G24    29.98R
WEST PLAINS    PTSUNNY   64  44  48 SW6       30.08R

$$

IAZ060-094-KSZ022-034>040-054-083-096-NEZ052-066-093-031500-
...KANSAS...SOUTHEAST NEBRASKA AND IOWA...

CITY           SKY/WX    TMP DP  RH WIND       PRES   REMARKS
TOPEKA         PTSUNNY   66  56  70 S14G22    29.85R
MANHATTAN      MOSUNNY   69  58  67 SW14      29.80S
EMPORIA        MOSUNNY   67  55  65 S21G28    29.85R
CHANUTE        MOSUNNY   69  55  60 S21G28    29.92S
WICHITA        PTSUNNY   66  54  65 S17       29.85S
OMAHA          PTSUNNY   67  58  72 S13       29.75S
LINCOLN        MOSUNNY   68  57  68 S16       29.75S
FALLS CITY     MOSUNNY   67  56  67 S15G24    29.80S
LAMONI         MOSUNNY   64  55  72 S13       29.85R
DES MOINES     PTSUNNY   67  56  67 S12       29.80S

$$



USA.gov is the U.S. government's official web portal to all federal, state and local government web resources and services.